TimeAKST,TemperatureF,Dew PointF,Humidity,Sea Level PressureIn,VisibilityMPH,Wind Direction,Wind SpeedMPH,Gust SpeedMPH,PrecipitationIn,Events,Conditions,WindDirDegrees,DateUTC
12:16 AM,41.0,39.2,93,28.62,7.0,SE,11.5,21.9,N/A,,Overcast,140,2013-03-07 09:16:00
12:36 AM,41.0,39.2,93,28.61,8.0,SE,15.0,21.9,N/A,,Overcast,140,2013-03-07 09:36:00
12:56 AM,41.0,39.2,93,28.61,5.0,SSE,12.7,21.9,N/A,,Overcast,150,2013-03-07 09:56:00
1:16 AM,41.0,39.2,93,28.60,5.0,SE,13.8,18.4,N/A,,Overcast,140,2013-03-07 10:16:00
1:36 AM,41.0,39.2,93,28.58,8.0,SE,15.0,19.6,N/A,,Overcast,140,2013-03-07 10:36:00
1:56 AM,41.0,39.2,93,28.57,5.0,SSE,11.5,18.4,N/A,,Overcast,150,2013-03-07 10:56:00
2:16 AM,41.0,39.2,93,28.56,9.0,SE,8.1,-,N/A,,Overcast,140,2013-03-07 11:16:00
2:36 AM,41.0,39.2,93,28.56,8.0,SE,5.8,-,N/A,,Overcast,140,2013-03-07 11:36:00
2:56 AM,41.0,39.2,93,28.56,6.0,SSE,6.9,-,N/A,,Overcast,150,2013-03-07 11:56:00
3:16 AM,41.0,39.2,93,28.55,5.0,SE,3.5,-,N/A,,Overcast,130,2013-03-07 12:16:00
3:36 AM,41.0,41.0,100,28.53,3.0,SSE,8.1,-,N/A,,Overcast,150,2013-03-07 12:36:00
3:56 AM,41.0,41.0,100,28.52,4.0,SE,6.9,-,N/A,,Overcast,140,2013-03-07 12:56:00
4:16 AM,41.0,41.0,100,28.51,5.0,SE,4.6,-,N/A,,Overcast,140,2013-03-07 13:16:00
4:36 AM,41.0,41.0,100,28.50,10.0,SE,6.9,-,N/A,,Overcast,140,2013-03-07 13:36:00
5:16 AM,41.0,41.0,100,28.50,5.0,SE,5.8,-,N/A,,Overcast,140,2013-03-07 14:16:00
5:36 AM,41.0,41.0,100,28.48,5.0,SE,4.6,-,N/A,,Overcast,140,2013-03-07 14:36:00
5:56 AM,41.0,41.0,100,28.47,4.0,SE,5.8,-,N/A,,Overcast,140,2013-03-07 14:56:00
6:16 AM,41.0,41.0,100,28.46,4.0,SE,8.1,-,N/A,,Overcast,140,2013-03-07 15:16:00
6:36 AM,41.0,41.0,100,28.45,7.0,SE,6.9,-,N/A,,Overcast,130,2013-03-07 15:36:00
6:56 AM,41.0,41.0,100,28.44,4.0,SE,6.9,-,N/A,,Overcast,140,2013-03-07 15:56:00
7:16 AM,41.0,41.0,100,28.45,5.0,SE,6.9,-,N/A,,Overcast,130,2013-03-07 16:16:00
7:36 AM,41.0,41.0,100,28.44,3.0,SE,8.1,18.4,N/A,,Overcast,140,2013-03-07 16:36:00
7:56 AM,41.0,39.2,93,28.42,9.0,ESE,4.6,-,N/A,,Overcast,120,2013-03-07 16:56:00
8:16 AM,41.0,39.2,93,28.42,7.0,Calm,Calm,-,N/A,,Overcast,0,2013-03-07 17:16:00
8:36 AM,41.0,39.2,93,28.42,3.0,Calm,Calm,-,N/A,,Overcast,0,2013-03-07 17:36:00
8:56 AM,39.2,37.4,93,28.42,2.5,Calm,Calm,-,N/A,,Overcast,0,2013-03-07 17:56:00
9:16 AM,39.2,37.4,93,28.42,3.0,Calm,Calm,-,N/A,,Overcast,0,2013-03-07 18:16:00
9:36 AM,39.2,37.4,93,28.42,3.0,SE,4.6,-,N/A,,Overcast,130,2013-03-07 18:36:00
9:56 AM,39.2,37.4,93,28.41,3.0,SE,5.8,-,N/A,,Overcast,140,2013-03-07 18:56:00
10:16 AM,39.2,37.4,93,28.41,3.0,SSE,12.7,20.7,N/A,,Overcast,150,2013-03-07 19:16:00
10:36 AM,37.4,35.6,93,28.42,10.0,SE,9.2,18.4,N/A,,Overcast,140,2013-03-07 19:36:00
10:56 AM,37.4,35.6,93,28.43,10.0,ESE,6.9,-,N/A,,Mostly Cloudy,120,2013-03-07 19:56:00
11:16 AM,39.2,37.4,93,28.44,10.0,ESE,3.5,-,N/A,,Overcast,120,2013-03-07 20:16:00
11:36 AM,37.4,37.4,100,28.43,10.0,ENE,4.6,-,N/A,,Overcast,60,2013-03-07 20:36:00
11:56 AM,37.4,37.4,100,28.43,10.0,East,3.5,-,N/A,,Overcast,80,2013-03-07 20:56:00
12:36 PM,37.4,37.4,100,28.44,10.0,NE,3.5,-,N/A,,Overcast,40,2013-03-07 21:36:00
12:56 PM,39.2,37.4,93,28.44,10.0,East,5.8,-,N/A,,Overcast,90,2013-03-07 21:56:00
1:16 PM,37.4,37.4,100,28.44,10.0,East,5.8,-,N/A,,Overcast,90,2013-03-07 22:16:00
1:36 PM,37.4,37.4,100,28.44,10.0,East,3.5,-,N/A,,Overcast,80,2013-03-07 22:36:00
1:56 PM,37.4,37.4,100,28.43,10.0,ENE,6.9,-,N/A,,Overcast,70,2013-03-07 22:56:00
2:16 PM,37.4,37.4,100,28.43,10.0,ENE,4.6,-,N/A,,Overcast,60,2013-03-07 23:16:00
2:36 PM,37.4,37.4,100,28.44,10.0,ENE,3.5,-,N/A,,Overcast,60,2013-03-07 23:36:00
2:56 PM,37.4,37.4,100,28.43,10.0,ENE,3.5,-,N/A,,Overcast,60,2013-03-07 23:56:00
3:16 PM,39.2,37.4,93,28.43,10.0,Calm,Calm,-,N/A,,Overcast,0,2013-03-08 00:16:00
3:36 PM,39.2,37.4,93,28.43,10.0,NE,4.6,-,N/A,,Overcast,40,2013-03-08 00:36:00
3:56 PM,39.2,37.4,93,28.43,10.0,NNE,4.6,-,N/A,,Mostly Cloudy,30,2013-03-08 00:56:00
4:16 PM,39.2,37.4,93,28.44,10.0,NE,3.5,-,N/A,,Mostly Cloudy,50,2013-03-08 01:16:00
4:36 PM,39.2,37.4,93,28.45,10.0,Calm,Calm,-,N/A,,Mostly Cloudy,0,2013-03-08 01:36:00
4:56 PM,39.2,37.4,93,28.46,10.0,Calm,Calm,-,N/A,,Overcast,0,2013-03-08 01:56:00
5:16 PM,39.2,37.4,93,28.47,10.0,Calm,Calm,-,N/A,,Overcast,0,2013-03-08 02:16:00
5:36 PM,37.4,37.4,100,28.48,10.0,Calm,Calm,-,N/A,,Overcast,0,2013-03-08 02:36:00
5:56 PM,37.4,37.4,100,28.50,10.0,NNE,3.5,-,N/A,,Overcast,20,2013-03-08 02:56:00
6:16 PM,37.4,37.4,100,28.51,10.0,NNE,4.6,-,N/A,,Overcast,30,2013-03-08 03:16:00
6:36 PM,37.4,37.4,100,28.53,10.0,NNE,4.6,-,N/A,,Overcast,20,2013-03-08 03:36:00
6:56 PM,37.4,37.4,100,28.55,10.0,Calm,Calm,-,N/A,,Overcast,0,2013-03-08 03:56:00
7:16 PM,37.4,37.4,100,28.57,10.0,Calm,Calm,-,N/A,,Overcast,0,2013-03-08 04:16:00
7:36 PM,37.4,37.4,100,28.58,10.0,Calm,Calm,-,N/A,,Overcast,0,2013-03-08 04:36:00
7:56 PM,37.4,37.4,100,28.60,10.0,Calm,Calm,-,N/A,,Overcast,0,2013-03-08 04:56:00
8:16 PM,37.4,37.4,100,28.61,10.0,Calm,Calm,-,N/A,,Overcast,0,2013-03-08 05:16:00
8:36 PM,37.4,37.4,100,28.63,10.0,SE,4.6,-,N/A,,Overcast,140,2013-03-08 05:36:00
8:56 PM,37.4,37.4,100,28.65,10.0,South,9.2,-,N/A,,Overcast,180,2013-03-08 05:56:00
9:16 PM,37.4,37.4,100,28.67,10.0,South,10.4,-,N/A,,Overcast,190,2013-03-08 06:16:00
9:36 PM,37.4,37.4,100,28.68,10.0,SSW,8.1,-,N/A,,Overcast,210,2013-03-08 06:36:00
9:56 PM,37.4,37.4,100,28.69,9.0,South,9.2,-,N/A,,Overcast,170,2013-03-08 06:56:00
10:16 PM,37.4,35.6,93,28.71,10.0,SW,6.9,-,N/A,,Overcast,220,2013-03-08 07:16:00
10:36 PM,37.4,35.6,93,28.73,10.0,SSW,6.9,-,N/A,,Mostly Cloudy,200,2013-03-08 07:36:00
10:56 PM,37.4,35.6,93,28.75,10.0,South,8.1,-,N/A,,Overcast,190,2013-03-08 07:56:00
11:16 PM,35.6,35.6,100,28.77,10.0,South,5.8,-,N/A,,Overcast,190,2013-03-08 08:16:00
11:36 PM,37.4,35.6,93,28.79,10.0,South,9.2,-,N/A,,Overcast,190,2013-03-08 08:36:00
11:56 PM,35.6,35.6,100,28.80,10.0,South,10.4,-,N/A,,Overcast,170,2013-03-08 08:56:00